TimeCST,TemperatureF,Dew PointF,Humidity,Sea Level PressureIn,VisibilityMPH,Wind Direction,Wind SpeedMPH,Gust SpeedMPH,PrecipitationIn,Events,Conditions,WindDirDegrees,DateUTC
12:15 AM,23.0,19.4,86,30.50,10.0,Calm,Calm,-,N/A,,Clear,0,2014-01-08 06:15:00
12:35 AM,23.0,18.9,84,30.49,10.0,Calm,Calm,-,N/A,,Clear,0,2014-01-08 06:35:00
12:55 AM,22.8,18.7,84,30.49,10.0,Calm,Calm,-,N/A,,Clear,0,2014-01-08 06:55:00
1:15 AM,22.8,19.8,88,30.48,10.0,Calm,Calm,-,N/A,,Clear,0,2014-01-08 07:15:00
1:35 AM,22.3,18.7,86,30.47,10.0,Calm,Calm,-,N/A,,Clear,0,2014-01-08 07:35:00
1:55 AM,23.0,19.2,85,30.47,10.0,Calm,Calm,-,N/A,,Clear,0,2014-01-08 07:55:00
2:15 AM,23.2,19.2,85,30.47,10.0,Calm,Calm,-,N/A,,Clear,0,2014-01-08 08:15:00
2:35 AM,23.0,19.2,85,30.47,10.0,Calm,Calm,-,N/A,,Clear,0,2014-01-08 08:35:00
2:55 AM,22.8,19.4,87,30.47,10.0,Calm,Calm,-,N/A,,Clear,0,2014-01-08 08:55:00
3:15 AM,22.6,19.0,86,30.46,10.0,Calm,Calm,-,N/A,,Clear,0,2014-01-08 09:15:00
3:35 AM,23.9,19.9,85,30.47,10.0,Calm,Calm,-,N/A,,Clear,0,2014-01-08 09:35:00
3:55 AM,23.2,19.4,85,30.46,10.0,Calm,Calm,-,N/A,,Clear,0,2014-01-08 09:55:00
4:15 AM,23.5,19.6,85,30.45,10.0,Calm,Calm,-,N/A,,Clear,0,2014-01-08 10:15:00
4:35 AM,24.4,19.9,83,30.45,10.0,NNE,3.5,-,N/A,,Clear,30,2014-01-08 10:35:00
4:55 AM,24.8,19.4,80,30.45,10.0,NNE,3.5,-,N/A,,Clear,30,2014-01-08 10:55:00
5:48 AM,26.6,21.2,80,30.46,7.0,NE,11.5,-,N/A,,Clear,40,2014-01-08 11:48:00
6:48 AM,26.6,21.2,80,30.47,7.0,ENE,4.6,-,N/A,,Partly Cloudy,60,2014-01-08 12:48:00
7:50 AM,30.2,23.0,75,30.49,7.0,NE,4.6,-,N/A,,Partly Cloudy,40,2014-01-08 13:50:00
8:50 AM,35.6,26.6,70,30.49,7.0,NE,4.6,-,N/A,,Clear,40,2014-01-08 14:50:00
9:50 AM,39.2,26.6,61,30.49,7.0,ENE,11.5,-,N/A,,Clear,60,2014-01-08 15:50:00
10:50 AM,44.6,28.4,53,30.46,7.0,ENE,9.2,-,N/A,,Clear,70,2014-01-08 16:50:00
11:50 AM,46.4,28.4,50,30.43,7.0,ENE,11.5,-,N/A,,Clear,70,2014-01-08 17:50:00
12:50 PM,50.0,32.0,50,30.38,7.0,ENE,11.5,-,N/A,,Clear,70,2014-01-08 18:50:00
1:50 PM,51.8,33.8,50,30.37,7.0,ENE,11.5,-,N/A,,Clear,60,2014-01-08 19:50:00
2:50 PM,53.6,35.6,51,30.36,7.0,East,13.8,-,N/A,,Clear,90,2014-01-08 20:50:00
3:50 PM,55.4,37.4,51,30.36,7.0,ENE,11.5,-,N/A,,Clear,70,2014-01-08 21:50:00
4:50 PM,48.2,37.4,66,30.35,7.0,ENE,11.5,-,N/A,,Clear,70,2014-01-08 22:50:00
5:50 PM,44.6,37.4,76,30.35,7.0,ENE,11.5,-,N/A,,Clear,70,2014-01-08 23:50:00
6:15 PM,43.7,36.9,77,30.35,7.0,East,6.9,-,N/A,,Scattered Clouds,80,2014-01-09 00:15:00
6:35 PM,42.8,37.0,80,30.35,7.0,East,6.9,-,N/A,,Clear,80,2014-01-09 00:35:00
6:50 PM,42.8,37.4,81,30.35,7.0,ENE,11.5,-,N/A,,Clear,70,2014-01-09 00:50:00
6:55 PM,42.1,36.5,81,30.35,7.0,ENE,8.1,-,N/A,,Clear,70,2014-01-09 00:55:00
7:15 PM,41.9,36.1,80,30.35,7.0,ENE,8.1,-,N/A,,Clear,70,2014-01-09 01:15:00
7:35 PM,41.4,35.6,80,30.35,7.0,East,9.2,-,N/A,,Clear,80,2014-01-09 01:35:00
7:55 PM,41.2,35.6,81,30.34,7.0,East,6.9,-,N/A,,Clear,80,2014-01-09 01:55:00
8:15 PM,41.0,35.6,81,30.35,10.0,ENE,8.1,-,N/A,,Clear,70,2014-01-09 02:15:00
8:35 PM,40.6,35.6,82,30.36,7.0,ENE,5.8,-,N/A,,Clear,60,2014-01-09 02:35:00
8:55 PM,40.1,35.2,83,30.35,7.0,ENE,5.8,-,N/A,,Clear,70,2014-01-09 02:55:00
9:15 PM,40.1,35.2,83,30.35,7.0,ENE,5.8,-,N/A,,Clear,60,2014-01-09 03:15:00
9:35 PM,39.6,35.1,84,30.35,7.0,ENE,5.8,-,N/A,,Clear,70,2014-01-09 03:35:00
9:55 PM,40.1,35.6,84,30.35,7.0,ENE,5.8,-,N/A,,Clear,70,2014-01-09 03:55:00
10:15 PM,38.8,34.7,85,30.35,7.0,NE,4.6,-,N/A,,Clear,50,2014-01-09 04:15:00
10:35 PM,38.5,34.2,84,30.34,7.0,NE,4.6,-,N/A,,Clear,50,2014-01-09 04:35:00
10:55 PM,38.5,34.5,86,30.35,7.0,NE,4.6,-,N/A,,Clear,50,2014-01-09 04:55:00
11:15 PM,39.2,34.9,84,30.34,7.0,NE,5.8,-,N/A,,Clear,50,2014-01-09 05:15:00
11:35 PM,38.7,34.7,86,30.34,10.0,NE,4.6,-,N/A,,Clear,50,2014-01-09 05:35:00
11:55 PM,37.8,33.6,85,30.33,7.0,Calm,Calm,-,N/A,,Clear,0,2014-01-09 05:55:00